Regional Weather Roundup
Issued by NWS

Home | Current Version | Previous Version | Text Only | Print | Product List | Glossary Off
Versions: 1 2 3 4 5 6 7 8 9 10 11 12 13 14 15 16 17 18 19 20 21 22 23 24 25 26 27 28 29 30 31 32 33 34 35 36 37 38 39 40 41 42 43 44 45 46 47 48 49 50

000
ASUS43 KFSD 241202
RWRSD

WEATHER ROUNDUP FOR SOUTH DAKOTA
NATIONAL WEATHER SERVICE SIOUX FALLS SD
700 AM CDT THU APR 24 2014

NOTE: "FAIR" INDICATES FEW OR NO CLOUDS BELOW 12,000 FEET WITH NO
SIGNIFICANT WEATHER AND/OR OBSTRUCTIONS TO VISIBILITY.


SDZ001>005-009-010-012>017-241300-
NORTHWEST AND NORTH CENTRAL SOUTH DAKOTA

CITY           SKY/WX    TMP DP  RH WIND       PRES   REMARKS
BUFFALO          N/A     33  22  63 W12       29.75S WCI  24
FAITH            N/A     38  24  57 W14       29.79S
MOBRIDGE       PTCLDY    34  30  85 NW6       29.72R WCI  29
$$

SDZ012>016-024>037-041>051-057-063-072>074-241300-
SOUTHWEST AND SOUTH CENTRAL SOUTH DAKOTA

CITY           SKY/WX    TMP DP  RH WIND       PRES   REMARKS
RAPID CTY ARPT CLEAR     33  19  56 W9        29.85S WCI  25
PIERRE         PTCLDY    44  33  65 W13       29.77R
CUSTER         CLEAR     30  13  49 W6        29.87S WCI  24
ELLSWORTH AFB  CLEAR     34  19  55 W10       29.84F WCI  26
PHILIP         CLEAR     36  28  73 W10       29.82S
PINE RIDGE     CLEAR     32  28  85 SW6       29.89R WCI  26
WINNER         FAIR      46  34  62 NW12      29.79R
$$

SDZ004>011-016>023-039-040-241300-
NORTHEAST SOUTH DAKOTA

CITY           SKY/WX    TMP DP  RH WIND       PRES   REMARKS
ABERDEEN       CLOUDY    37  37 100 NW7       29.74S FOG
WATERTOWN      LGT RAIN  40  39  97 CALM      29.71R FOG
SISSETON         N/A     40  38  93 CALM      29.73S
$$

SDZ017-020-022-023-036>040-048>070-241300-
SOUTHEAST SOUTH DAKOTA

CITY           SKY/WX    TMP DP  RH WIND       PRES   REMARKS
SIOUX FALLS    RAIN      46  45  96 NE10      29.66R FOG
HURON          CLOUDY    43  40  89 NW6       29.73R
CHAMBERLAIN      N/A     44  36  73 NW8       29.76R
MITCHELL       CLOUDY    45  43  93 N10       29.71R
YANKTON        CLOUDY    48  46  93 NW9       29.68R
$$

ABBREVIATIONS USED IN REMARKS
   TC - TEMPERATURE IN CELSIUS
  WCI - WIND CHILL INDEX
   HX - HEAT INDEX
  VSB - VISIBILITY




USA.gov is the U.S. government's official web portal to all federal, state and local government web resources and services.